Hourly Data Report for December 08, 2019

All times are specified in Local Standard Time (LST). Add 1 hour to adjust for Daylight Saving Time where and when it is observed.

SATURNA ISLAND CS
BRITISH COLUMBIA
Current Station Operator: ECCC - MSC

48°47'02.067" N
123°02'41.082" W
24.40 m
1017101
71473
WEZ

Download Data

Hourly Data (December 2019)
Hourly Data Report for December 8, 2019
TIME Temp Definition
°C
Dew Point Definition
°C
Rel Hum Definition
%
Wind Dir Definition
10's deg

Wind Spd Definition
km/h
Visibility Definition
km
Stn Press Definition
kPa
Hmdx Definition


Wind Chill Definition


Weather Definition


00:00 8.2 7.9 98 0 1   100.82     LegendNANA
01:00 8.3 8.0 98 30 4   100.89     LegendNANA
02:00 8.2 7.9 98 29 4   100.98     LegendNANA
03:00 8.2 7.9 98 30 5   101.04     LegendNANA
04:00 8.2 7.9 98 31 4   101.12     LegendNANA
05:00 8.2 7.9 98 27 1   101.16     LegendNANA
06:00 8.1 7.8 98 29 3   101.26     LegendNANA
07:00 8.1 7.6 97 29 7   101.30     LegendNANA
08:00 8.0 7.5 96 30 3   101.38     LegendNANA
09:00 7.9 7.2 95 29 4   101.49     LegendNANA
10:00 8.0 7.0 94 31 3   101.52     LegendNANA
11:00 8.0 6.7 92 33 6   101.60     LegendNANA
12:00 8.3 6.7 90 29 5   101.66     LegendNANA
13:00 7.9 6.4 90 31 7   101.68     LegendNANA
14:00 7.8 6.2 90 32 7   101.72     LegendNANA
15:00 7.8 6.2 90 33 6   101.77     LegendNANA
16:00 7.6 6.0 90 29 4   101.87     LegendNANA
17:00 7.5 5.9 90 32 6   101.91     LegendNANA
18:00 7.4 6.2 92 33 5   101.90     LegendNANA
19:00 7.4 6.3 92 29 3   101.93     LegendNANA
20:00 7.2 6.1 93 34 6   101.93     LegendNANA
21:00 7.2 6.2 93 30 3   102.02     LegendNANA
22:00 7.2 6.2 93 29 2   102.11     LegendNANA
23:00 6.9 5.9 94   0   102.15     LegendNANA

Notes on Data Quality.

Legend

  • E = Estimated
  • M = Missing
  • NA = Not Available
Date modified: